Skip Page Navigation
NASA JPL Caltech
NASA Logo - Jet Propulsion Laboratory + View the NASA Portal
+ Near-Earth Object (NEO) Program
Search JPL
JPL Home Earth Solar System Stars & Galaxies Technology
JPL Solar System Dynamics
BODIES ORBITS EPHEMERIDES TOOLS PHYSICAL DATA DISCOVERY FAQ SITE MAP
JPL Small-Body Database Browser
Search: [ help ]  
22167 Lane-Cline (2000 WP157)
Classification: Main-belt Asteroid          SPK-ID: 2022167
Ephemeris | Orbit Diagram | Orbital Elements | Physical Parameters | Discovery Circumstances ]

[ show orbit diagram ]
Orbital Elements at Epoch 2457600.5 (2016-Jul-31.0) TDB
Reference: JPL 15 (heliocentric ecliptic J2000)
 Element Value Uncertainty (1-sigma)   Units 
e .07069560138762669 4.7672e-08  
a 2.303997878275354 1.4146e-08 au
q 2.141115362674862 1.0824e-07 au
i 6.445111073891094 6.2471e-06 deg
node 11.71439104201514 4.6217e-05 deg
peri 82.58165483527733 6.8381e-05 deg
M 181.5964441042769 4.8163e-05 deg
tp 2458233.527452832468
(2018-Apr-25.02745283)
0.00017065 JED
period 1277.384197167516
3.50
1.1764e-05
3.221e-08
d
yr
n .2818259383498461 2.5955e-09 deg/d
Q 2.466880393875846 1.5146e-08 au
  Orbit Determination Parameters
   # obs. used (total)      732  
   data-arc span      8830 days (24.18 yr)  
   first obs. used      1991-04-08  
   last obs. used      2015-06-11  
   planetary ephem.      DE431  
   SB-pert. ephem.      SB431-BIG16  
   condition code      0  
   fit RMS      .60457  
   data source      ORB  
   producer      Otto Matic  
   solution date      2015-Jul-06 12:30:31  

Additional Information
 Earth MOID = 1.1674 au 
 Jupiter MOID = 2.63675 au 
 T_jup = 3.578 
[ show covariance matrix ]

Ephemeris | Orbit Diagram | Orbital Elements | Physical Parameters | Discovery Circumstances ]

Physical Parameter Table
Parameter Symbol Value Units Sigma Reference Notes
absolute magnitude H 15.5 mag n/a MPO337445  

22167 Lane-Cline           Discovered 2000 Nov. 30 by the Lincoln Laboratory Near-Earth Asteroid Research Team at Socorro.
Amanda Lane-Cline mentored a finalist in the 2005 Discovery Channel Young Scientist Challenge (DCYSC), a middle school science competition. She teaches at the Littleton Academy, Littleton, Colorado.
NOTE: some special characters may not display properly (any characters within {} are an attempt to place the proper accent above a character)
Reference: 20051019/MPCPages.arcLast Updated: 2005-10-26

Alternate Designations
 2000 WP157 = 1991 GJ3 = 1998 FU143 
Ephemeris | Orbit Diagram | Orbital Elements | Physical Parameters | Discovery Circumstances ]
ABOUT SSD CREDITS/AWARDS PRIVACY/COPYRIGHT GLOSSARY LINKS
FirstGov 2016-May-03 04:58 UT
(server date/time)  
NASA Home Page
Site Manager:   Ryan S. Park
Webmaster  Alan B. Chamberlin